Weather History for Atlantic City, NJ

Change the Weather History Date:

Tuesday, May 7, 2013

  Actual Average Record
Temperature  
Mean Temperature 57 °F 58 °F  
Max Temperature 63 °F 69 °F 93 °F (2000)
Min Temperature 51 °F 48 °F 31 °F (1981)
Degree Days  
Heating Degree Days 8 8  
Month to date heating degree days 98 59  
Since 1 July heating degree days 4737 4763  
Cooling Degree Days 0 1  
Month to date cooling degree days 0 7  
Year to date cooling degree days 15 16  
Growing Degree Days 7 (Base 50)    
Moisture  
Dew Point 53 °F    
Average Humidity 86    
Maximum Humidity 100    
Minimum Humidity 72    
Precipitation  
Precipitation 0.09 in 0.10 in 2.41 in (1967)
Month to date precipitation 0.09 0.70  
Year to date precipitation 14.95 14.63  
Snow  
Snow 0.00 in 0.00 in 0.00 in (1903)
Month to date snowfall 0.0 0.0  
Since 1 July snowfall 14.6 16.5  
Snow Depth 0.00 in    
Sea Level Pressure  
Sea Level Pressure 30.09 in    
Wind  
Wind Speed 11 mph (ENE)    
Max Wind Speed 18 mph    
Max Gust Speed 24 mph    
Visibility 6 miles    
Events Fog , Rain    
T = Trace of Precipitation, MM = Missing Value Source: NWS Daily Summary

Daily Weather History Graph

Daily Weather History Graph

Search for Another Location

Airport:

Trip Planner

Search our weather history database for the weather conditions in past years. The results will help you decide how hot, cold, wet, or windy it might be!

Date:

Astronomy

May. 07, 2013 Rise Set
Actual Time 5:52 AM EDT 7:58 PM EDT
Civil Twilight 5:22 AM EDT 8:27 PM EDT
Nautical Twilight 4:46 AM EDT 9:04 PM EDT
Astronomical Twilight 4:07 AM EDT 9:43 PM EDT
Moon 4:24 AM EDT (5/7) 5:55 PM EDT (5/7)
Length of Visible Light 15h 05m
Length of Day
14h 05m
Waning Crescent, 5% of the Moon is Illuminated
May 7
Waning Crescent
May 9
New
May 18
First Quarter
May 25
Full
May 31
Last Quarter

Hourly Weather History & Observations

Time (EDT) Temp. Dew Point Humidity Pressure Visibility Wind Dir Wind Speed Gust Speed Precip Events Conditions
12:54 AM 51.1 °F 50.0 °F 96% 30.13 in 0.5 mi East 6.9 mph - N/A   Overcast
1:54 AM 52.0 °F 50.0 °F 93% 30.12 in 0.5 mi East 5.8 mph - N/A Fog Fog
2:03 AM 52.0 °F 50.0 °F 93% 30.12 in 0.2 mi East 5.8 mph - N/A Fog Fog
2:19 AM 52.0 °F 50.0 °F 93% 30.12 in 0.5 mi East 4.6 mph - N/A Fog Fog
2:54 AM 51.1 °F 50.0 °F 96% 30.11 in 0.5 mi ENE 8.1 mph - N/A Fog Fog
3:54 AM 51.1 °F 50.0 °F 96% 30.10 in 0.5 mi ENE 6.9 mph - N/A   Mist
4:54 AM 51.1 °F 50.0 °F 96% 30.09 in 0.5 mi ENE 6.9 mph - N/A   Overcast
5:54 AM 52.0 °F 50.0 °F 93% 30.10 in 0.5 mi ENE 6.9 mph - N/A   Mist
6:54 AM 52.0 °F 50.0 °F 93% 30.11 in 0.5 mi ENE 10.4 mph - N/A Fog Fog
7:02 AM 52.0 °F 51.1 °F 97% 30.11 in 0.2 mi ENE 10.4 mph - N/A Fog Fog
7:13 AM 52.0 °F 51.1 °F 97% 30.11 in 0.5 mi ENE 11.5 mph - N/A Fog Fog
7:54 AM 52.0 °F 51.1 °F 97% 30.11 in 0.5 mi ENE 12.7 mph - N/A   Overcast
8:54 AM 54.0 °F 52.0 °F 93% 30.12 in 0.5 mi ENE 13.8 mph - N/A   Overcast
9:54 AM 55.0 °F 54.0 °F 96% 30.12 in 0.5 mi ENE 13.8 mph - N/A   Overcast
10:30 AM 55.9 °F 54.0 °F 93% 30.12 in 2.5 mi ENE 12.7 mph - N/A   Overcast
10:46 AM 55.9 °F 54.0 °F 93% 30.13 in 2.5 mi ENE 12.7 mph - N/A   Overcast
10:54 AM 55.9 °F 53.1 °F 90% 30.13 in 10.0 mi ENE 15.0 mph 20.7 mph N/A   Overcast
11:54 AM 57.0 °F 53.1 °F 87% 30.12 in 10.0 mi ENE 13.8 mph - N/A   Overcast
12:54 PM 59.0 °F 54.0 °F 83% 30.11 in 10.0 mi ENE 15.0 mph - N/A   Overcast
1:54 PM 59.0 °F 53.1 °F 81% 30.11 in 10.0 mi ENE 17.3 mph - N/A   Overcast
2:54 PM 57.9 °F 53.1 °F 84% 30.09 in 10.0 mi ENE 13.8 mph - N/A   Overcast
3:34 PM 59.0 °F 54.0 °F 83% 30.08 in 10.0 mi ENE 11.5 mph - N/A   Mostly Cloudy
3:54 PM 60.1 °F 54.0 °F 80% 30.07 in 10.0 mi East 13.8 mph - N/A   Overcast
4:54 PM 62.1 °F 54.0 °F 75% 30.05 in 10.0 mi ENE 13.8 mph - N/A   Clear
5:54 PM 60.1 °F 54.0 °F 80% 30.05 in 10.0 mi ENE 12.7 mph - N/A   Overcast
6:54 PM 57.9 °F 54.0 °F 87% 30.06 in 10.0 mi ENE 15.0 mph - N/A   Mostly Cloudy
7:54 PM 59.0 °F 54.0 °F 83% 30.06 in 10.0 mi East 9.2 mph - N/A   Overcast
8:54 PM 57.0 °F 55.0 °F 93% 30.06 in 10.0 mi ENE 9.2 mph - 0.02 in Rain Light Rain
9:35 PM 57.9 °F 55.0 °F 90% 30.06 in 10.0 mi ENE 5.8 mph - 0.05 in Rain Light Rain
9:54 PM 59.0 °F 55.9 °F 90% 30.06 in 10.0 mi East 8.1 mph - 0.05 in Rain Light Rain
10:19 PM 59.0 °F 55.9 °F 90% 30.06 in 10.0 mi East 8.1 mph - 0.02 in Rain Light Rain
10:54 PM 57.9 °F 55.9 °F 93% 30.05 in 10.0 mi East 11.5 mph - 0.02 in   Mostly Cloudy
11:04 PM 57.9 °F 55.0 °F 90% 30.05 in 10.0 mi ESE 9.2 mph - N/A   Mostly Cloudy
11:13 PM 57.9 °F 55.0 °F 90% 30.05 in 10.0 mi East 9.2 mph - N/A   Overcast
11:47 PM 57.0 °F 55.0 °F 93% 30.06 in 10.0 mi ESE 9.2 mph - N/A   Overcast
11:54 PM 57.0 °F 55.0 °F 93% 30.06 in 10.0 mi ESE 10.4 mph - N/A   Overcast